Wind_Speed
16 15 14 13 13 13 13 14 15 15 15 16 17 18 18 18 18 19 19 19 19 19 19 20 20 21 21 21 21 22 23 24 24 25 26 27 28 29 30 32 33 35 36 38
17 16 15 14 14 14 14 14 15 15 15 16 17 18 18 18 19 19 19 19 20 20 20 21 22 22 22 22 23 23 24 24 25 26 27 28 29 30 32 33 35 37 38 40
18 16 15 15 15 15 15 15 15 15 15 16 17 18 18 19 19 19 20 20 21 21 22 22 23 23 24 24 24 24 25 25 26 27 28 30 31 33 35 37 38 40 41 43
18 17 16 16 16 15 15 15 15 16 16 16 17 18 19 19 19 20 21 21 22 22 22 23 24 24 25 25 26 26 27 28 29 30 31 32 34 35 37 38 40 42 44 45
18 18 17 17 16 16 16 16 16 16 17 17 18 19 19 20 21 21 22 22 22 23 23 24 25 26 26 27 28 28 29 30 31 32 33 35 36 38 39 41 43 45 47 49
19 19 18 17 17 17 17 17 17 17 17 18 18 20 20 20 21 22 22 23 24 24 25 26 27 27 28 29 30 31 31 32 33 34 36 37 39 41 43 45 46 49 51 53
20 19 18 18 18 17 17 17 18 18 18 18 19 21 21 21 22 23 24 24 25 26 27 28 28 29 30 31 32 33 33 34 35 37 39 41 43 44 47 49 51 53 55 58
20 19 18 18 18 18 18 18 19 20 20 20 21 22 22 22 23 24 25 26 27 28 29 29 30 31 33 34 34 35 36 37 39 41 43 45 47 49 51 54 56 58 60 62
20 19 18 18 18 18 18 19 19 21 22 22 22 22 23 24 25 26 27 28 29 30 31 31 33 34 36 36 37 38 39 41 43 45 47 49 51 54 56 59 61 63 65 67
19 19 19 19 19 19 20 20 21 22 24 24 24 23 25 26 27 27 28 29 30 31 32 34 36 37 38 39 40 42 44 45 47 49 51 54 56 59 61 63 66 68 70 72
20 20 19 20 20 21 21 22 23 25 26 27 27 25 27 28 29 29 30 31 32 33 34 36 38 39 40 42 43 45 47 49 51 53 56 58 61 63 66 68 70 72 73 75
21 21 20 21 21 22 23 23 25 26 27 28 29 28 28 30 31 32 33 34 34 36 37 39 40 42 43 44 46 48 50 53 55 57 60 62 65 67 69 71 73 75 77 78
21 21 21 22 23 24 24 25 26 28 29 30 30 30 30 33 34 35 35 36 37 38 40 41 42 44 45 47 49 52 54 56 59 61 64 66 69 71 72 74 75 77 78 80
22 22 22 24 25 25 25 26 27 29 31 32 30 31 32 35 36 37 37 38 39 40 41 42 44 46 48 50 53 55 57 60 62 65 67 69 71 72 74 75 77 78 79 80
23 23 24 25 26 27 27 27 28 30 32 34 33 33 34 37 38 38 38 39 40 41 43 44 46 48 51 53 56 58 60 63 65 67 69 71 72 74 75 77 78 79 80 79
25 25 25 26 27 29 28 27 30 32 33 35 36 35 36 37 38 39 40 41 42 43 45 47 49 51 54 56 58 60 63 65 67 69 71 72 74 75 77 78 79 79 79 78
26 26 27 27 28 31 30 28 31 33 34 36 37 37 38 38 39 40 41 42 43 45 47 49 51 54 56 58 61 63 65 67 69 70 72 74 76 77 78 79 79 79 78 77
27 28 30 31 31 32 31 30 31 34 35 36 38 38 39 39 40 41 42 43 45 47 49 52 54 56 59 61 63 65 67 68 70 72 74 76 77 79 79 79 79 78 77 75
28 29 31 33 34 34 32 32 34 36 36 36 38 38 39 40 41 42 44 46 48 50 52 54 56 59 61 63 65 66 68 70 72 74 75 77 79 79 79 78 77 76 75 73
29 31 33 34 36 37 35 34 35 37 37 37 38 39 40 41 43 44 46 48 50 52 54 57 59 61 63 65 67 68 70 72 73 75 77 78 79 79 78 77 76 74 73 70
30 32 34 35 37 38 37 38 38 39 40 41 41 41 42 43 45 46 48 50 52 55 57 59 61 63 65 67 69 70 72 74 75 77 78 79 78 78 77 76 74 73 71 67
32 34 34 35 37 38 39 40 41 42 43 43 44 44 45 46 47 48 50 53 55 57 59 61 63 65 67 69 71 72 73 75 77 78 78 78 77 76 76 74 72 70 67 63
34 35 36 37 38 39 41 42 43 44 45 45 46 46 47 48 50 51 53 55 57 59 61 63 65 67 68 70 72 74 75 77 78 78 78 77 76 75 75 73 70 67 63 60
37 37 38 39 39 41 43 44 45 46 46 47 48 49 49 50 52 54 56 57 59 62 64 66 67 69 70 72 73 76 77 78 79 78 77 76 75 74 72 69 66 62 59 55
39 39 39 40 41 43 44 45 46 47 48 49 50 50 51 53 55 56 58 60 62 64 66 67 69 70 72 73 75 77 78 79 79 78 76 75 74 72 68 64 61 57 53 51
39 40 41 42 43 44 45 46 47 48 49 50 50 52 53 55 57 58 60 62 64 66 68 69 70 72 73 75 76 78 79 79 78 76 75 73 71 68 64 59 54 51 49 46
Wind_Direction
251 253 257 261 266 272 278 285 289 292 293 294 295 296 299 300 300 301 301 301 301 301 301 300 300 299 298 297 297 296 294 293 293 292 292 291 291 291 291 291 291 290 290 289
247 250 255 259 264 271 278 284 288 290 292 294 295 296 297 299 300 300 300 300 300 300 300 299 298 299 298 297 297 296 295 294 294 293 293 294 294 293 293 293 293 293 292 291
245 249 254 259 265 271 277 282 287 290 292 293 294 295 296 298 299 299 298 299 299 299 298 298 298 298 297 297 297 296 296 295 295 295 295 295 295 295 294 294 294 294 293 293
245 250 254 260 266 271 276 280 284 288 290 292 294 294 296 297 298 298 298 298 299 298 297 297 297 296 296 297 297 297 297 296 296 296 296 296 296 296 296 295 295 295 294 294
246 250 256 261 266 271 276 280 283 286 289 290 292 292 295 297 297 297 297 297 297 297 296 296 295 295 295 296 297 297 296 296 296 296 296 296 296 295 295 295 295 295 294 294
245 250 256 261 267 271 276 280 283 285 288 290 291 292 294 297 296 296 296 296 296 296 296 295 295 294 294 295 296 296 296 295 295 296 297 297 297 297 297 297 297 296 296 295
245 250 255 260 266 271 276 280 283 286 288 290 292 292 294 295 295 295 295 296 296 296 296 295 294 294 295 296 296 296 296 296 296 297 297 298 298 298 298 298 297 297 296 295
246 250 255 261 267 271 275 279 283 287 291 292 293 294 295 295 295 295 295 295 295 295 295 295 294 295 296 296 297 297 296 297 297 297 298 298 298 299 299 299 298 297 297 296
246 251 256 262 267 271 274 278 282 287 290 293 294 295 293 294 295 295 295 295 294 294 294 294 295 296 296 296 296 297 297 297 298 299 299 300 300 300 300 300 300 299 298 297
246 252 257 263 267 271 275 280 283 287 292 294 295 295 296 296 296 295 295 295 295 294 294 295 295 296 296 296 297 297 298 298 299 300 301 301 302 302 302 301 301 301 300 299
247 254 259 263 268 273 277 281 284 286 290 294 295 297 297 297 297 296 296 296 296 296 296 295 296 296 296 297 297 298 299 299 301 301 302 303 303 303 303 303 302 302 301 301
249 255 260 265 269 274 278 282 284 288 291 292 294 298 297 296 296 296 297 297 297 297 297 296 296 297 297 298 299 300 300 301 302 303 303 304 304 304 304 304 304 303 303 303
253 258 263 267 271 275 279 282 285 287 289 291 294 297 296 295 295 296 296 297 297 297 297 297 297 298 299 299 300 301 301 302 303 304 304 305 305 305 305 305 305 305 305 304
256 261 265 270 274 277 280 283 286 288 290 291 293 294 294 294 295 296 296 296 296 297 297 298 298 299 300 301 301 302 303 304 304 305 305 306 306 306 306 306 306 306 306 306
260 264 267 270 274 278 281 284 286 288 290 291 294 294 294 294 296 297 296 296 297 297 298 298 299 300 301 302 303 303 304 305 305 306 306 307 307 307 307 308 308 307 307 307
263 266 268 271 275 279 282 286 286 288 289 291 292 295 294 295 295 296 296 297 297 298 298 299 300 301 302 303 303 304 305 305 306 307 307 308 308 308 309 309 309 308 308 307
265 269 271 273 275 279 283 286 286 287 289 291 293 295 294 294 294 295 296 296 297 298 299 300 301 302 303 304 304 305 306 306 307 308 309 309 309 310 310 310 310 309 309 308
266 270 273 277 279 280 286 286 286 287 289 292 293 294 294 294 295 295 296 297 298 299 300 301 302 303 304 305 305 306 307 308 309 310 310 311 311 311 311 311 311 310 309 309
268 272 275 279 281 283 285 288 288 289 291 293 294 294 295 295 295 295 296 298 299 300 301 302 303 304 305 306 307 308 309 309 310 311 311 312 312 312 312 312 312 311 311 310
269 272 275 279 282 285 288 289 289 291 293 294 295 295 295 295 295 296 297 299 300 301 302 303 305 306 307 307 308 309 310 311 311 312 313 313 313 313 313 313 313 312 311 311
270 272 275 279 282 285 289 290 292 293 295 296 297 296 296 295 296 297 299 300 301 302 304 305 306 307 308 309 310 311 311 312 313 313 314 314 314 314 314 313 313 312 312 311
270 273 275 278 281 286 288 290 292 293 295 296 297 297 296 296 297 298 299 301 302 304 305 306 307 308 309 310 311 311 312 313 313 314 314 314 314 314 314 314 313 313 312 311
271 274 277 279 283 285 287 289 292 293 294 296 296 297 297 297 298 300 301 302 304 305 306 307 308 309 310 311 312 312 313 314 314 315 315 315 314 314 314 314 313 312 311 311
273 275 278 281 283 285 287 289 291 293 294 295 296 296 297 298 300 301 302 303 304 306 307 308 309 310 311 312 312 313 314 314 315 315 315 315 315 315 314 314 313 312 311 310
275 277 279 281 283 285 288 290 291 292 293 294 295 297 298 299 300 302 303 304 305 307 308 309 310 311 311 312 313 314 314 315 315 316 316 315 315 315 315 314 313 312 311 311
276 278 280 281 283 285 288 289 291 291 293 294 296 297 298 300 301 302 303 305 306 308 309 310 310 311 312 313 314 314 315 315 316 316 316 316 316 315 314 313 313 312 311 310
Height
5842 5843 5843 5843 5843 5844 5843 5842 5842 5841 5839 5838 5835 5834 5832 5831 5829 5828 5826 5825 5824 5822 5820 5819 5817 5815 5813 5811 5809 5807 5805 5803 5800 5798 5796 5794 5792 5789 5787 5784 5782 5779 5776 5774
5839 5839 5840 5839 5840 5840 5839 5839 5838 5837 5836 5834 5832 5830 5829 5827 5826 5824 5823 5821 5819 5818 5816 5814 5812 5810 5808 5806 5804 5802 5800 5797 5795 5792 5790 5787 5785 5782 5780 5777 5774 5771 5767 5764
5834 5836 5835 5836 5836 5836 5836 5835 5834 5834 5832 5830 5829 5827 5825 5823 5822 5820 5818 5817 5815 5813 5811 5809 5807 5805 5803 5801 5799 5796 5794 5791 5789 5786 5784 5781 5778 5775 5772 5768 5765 5761 5758 5754
5830 5831 5832 5832 5832 5832 5832 5831 5831 5830 5828 5827 5826 5824 5822 5819 5818 5816 5814 5812 5810 5808 5806 5804 5802 5800 5797 5795 5793 5790 5788 5785 5782 5780 5777 5773 5770 5767 5763 5759 5756 5751 5747 5743
5826 5827 5827 5828 5828 5828 5828 5827 5827 5825 5824 5823 5822 5820 5819 5815 5814 5812 5810 5807 5805 5804 5801 5799 5796 5794 5792 5789 5787 5784 5781 5778 5775 5772 5769 5765 5762 5758 5754 5750 5746 5741 5737 5732
5821 5822 5823 5823 5823 5824 5823 5823 5822 5821 5820 5819 5817 5816 5814 5811 5809 5807 5805 5802 5800 5798 5796 5793 5790 5788 5786 5783 5780 5777 5774 5771 5767 5764 5760 5756 5752 5748 5744 5740 5735 5730 5725 5720
5816 5817 5818 5818 5819 5819 5819 5819 5818 5817 5816 5815 5813 5811 5810 5807 5804 5802 5799 5797 5794 5792 5790 5787 5784 5781 5779 5776 5773 5769 5766 5762 5759 5755 5751 5747 5742 5738 5733 5728 5723 5717 5712 5706
5811 5813 5814 5814 5814 5814 5814 5814 5814 5812 5811 5810 5807 5806 5805 5801 5798 5796 5794 5791 5788 5786 5783 5780 5777 5774 5771 5768 5765 5761 5757 5753 5749 5745 5741 5736 5731 5726 5721 5715 5709 5703 5697 5690
5806 5808 5809 5809 5809 5809 5809 5809 5808 5807 5805 5804 5802 5801 5799 5795 5793 5790 5788 5785 5782 5779 5776 5773 5770 5767 5763 5760 5756 5752 5748 5744 5739 5734 5729 5724 5718 5713 5707 5700 5693 5687 5680 5673
5801 5803 5803 5803 5804 5804 5804 5803 5802 5800 5799 5798 5797 5795 5793 5789 5786 5784 5781 5778 5775 5772 5769 5765 5762 5758 5755 5751 5747 5742 5738 5733 5728 5722 5717 5711 5704 5698 5691 5684 5677 5669 5661 5653
5796 5798 5798 5798 5798 5798 5798 5798 5796 5794 5793 5791 5789 5791 5786 5782 5779 5776 5774 5770 5767 5764 5761 5757 5753 5749 5745 5741 5737 5732 5727 5721 5716 5710 5703 5697 5690 5682 5674 5666 5658 5650 5641 5632
5790 5792 5792 5793 5792 5792 5792 5791 5790 5789 5786 5784 5782 5785 5779 5774 5771 5768 5766 5762 5759 5756 5752 5748 5744 5740 5736 5731 5726 5720 5715 5709 5703 5696 5689 5682 5674 5666 5657 5649 5640 5630 5621 5611
5784 5786 5786 5787 5788 5786 5785 5784 5783 5781 5779 5777 5775 5777 5771 5766 5763 5760 5757 5754 5750 5747 5743 5739 5734 5730 5725 5720 5714 5708 5702 5696 5689 5682 5674 5666 5657 5648 5639 5630 5620 5610 5600 5590
5778 5780 5781 5781 5779 5779 5778 5778 5776 5774 5771 5769 5769 5767 5763 5758 5755 5752 5748 5745 5741 5737 5733 5728 5724 5719 5714 5708 5702 5696 5689 5682 5674 5666 5658 5649 5640 5631 5621 5611 5601 5590 5580 5569
5771 5773 5773 5773 5772 5771 5771 5771 5768 5766 5764 5761 5760 5758 5755 5749 5746 5743 5739 5735 5731 5727 5723 5718 5713 5708 5702 5696 5689 5682 5675 5667 5659 5650 5641 5632 5622 5612 5602 5592 5581 5570 5559 5548
5764 5766 5766 5766 5765 5763 5763 5763 5760 5758 5756 5753 5750 5749 5745 5741 5737 5733 5729 5725 5721 5717 5712 5707 5701 5696 5689 5683 5676 5668 5660 5652 5643 5634 5624 5615 5605 5594 5584 5573 5561 5550 5539 5528
5758 5758 5758 5758 5757 5755 5756 5756 5752 5750 5747 5745 5742 5740 5735 5732 5728 5724 5720 5715 5711 5706 5701 5695 5689 5683 5676 5669 5661 5653 5645 5636 5627 5617 5607 5597 5586 5576 5564 5553 5541 5530 5519 5508
5751 5750 5749 5749 5749 5748 5750 5747 5744 5741 5739 5736 5732 5729 5725 5722 5718 5714 5709 5705 5700 5694 5689 5683 5676 5670 5662 5654 5646 5638 5629 5619 5610 5600 5589 5578 5567 5557 5545 5533 5521 5510 5499 5488
5743 5742 5741 5740 5738 5738 5740 5738 5734 5731 5730 5727 5723 5719 5715 5711 5707 5703 5698 5693 5688 5682 5676 5670 5663 5655 5647 5639 5631 5622 5613 5603 5593 5583 5572 5560 5548 5537 5526 5514 5502 5490 5479 5469
5735 5734 5733 5731 5729 5728 5730 5728 5724 5722 5720 5717 5713 5709 5705 5701 5697 5693 5687 5681 5676 5669 5663 5656 5648 5640 5632 5623 5615 5606 5596 5586 5576 5565 5554 5542 5529 5517 5506 5494 5483 5471 5460 5450
5727 5725 5724 5722 5719 5719 5719 5716 5714 5713 5710 5706 5702 5698 5694 5690 5685 5680 5674 5669 5662 5656 5649 5642 5634 5625 5617 5607 5598 5589 5579 5569 5558 5547 5535 5523 5511 5498 5487 5476 5464 5453 5442 5432
5717 5716 5716 5714 5711 5712 5708 5706 5704 5701 5698 5694 5690 5686 5682 5677 5673 5667 5662 5656 5649 5642 5635 5627 5619 5611 5601 5591 5582 5573 5563 5552 5541 5530 5518 5505 5493 5480 5468 5457 5446 5435 5424 5415
5708 5708 5706 5705 5705 5702 5698 5695 5692 5689 5686 5682 5678 5674 5670 5665 5660 5654 5648 5642 5635 5628 5620 5612 5604 5595 5585 5575 5565 5555 5545 5534 5523 5511 5499 5487 5475 5463 5450 5439 5428 5418 5407 5398
5698 5697 5696 5694 5693 5690 5687 5684 5681 5678 5674 5670 5666 5662 5657 5652 5647 5641 5635 5628 5621 5613 5605 5597 5588 5579 5570 5559 5548 5537 5526 5516 5504 5493 5481 5469 5458 5446 5434 5422 5411 5401 5392 5383
5688 5687 5685 5683 5681 5678 5676 5672 5669 5666 5662 5658 5653 5649 5644 5639 5633 5627 5621 5614 5606 5598 5590 5581 5572 5563 5553 5542 5532 5520 5508 5497 5486 5475 5463 5452 5440 5428 5418 5407 5396 5386 5378 5369
5678 5676 5674 5672 5670 5667 5665 5661 5657 5653 5649 5645 5641 5636 5631 5625 5619 5613 5606 5599 5591 5583 5574 5565 5556 5546 5536 5525 5514 5503 5491 5479 5467 5457 5446 5434 5423 5412 5401 5392 5385 5375 5366 5359